CAPE
0 0 0 0 0 0 0 0 0 0 0 0 0 0 0 646 814 729 692 710 727 732 683 361 406 441 530 443 504 589 567 612 537 506 430 407 432 317 263 174 125 118 94 150
0 0 0 0 0 0 0 0 0 0 0 0 0 0 0 375 749 816 760 752 734 739 592 487 295 353 428 436 499 570 650 660 651 623 461 421 425 538 446 435 359 248 141 90
0 0 0 0 0 0 0 0 0 0 0 0 0 0 3 1 166 638 867 793 680 718 637 599 472 353 365 413 503 608 680 797 765 760 658 682 703 648 572 451 409 320 193 136
0 0 0 0 0 0 0 0 0 0 0 0 0 0 5 0 0 18 558 848 831 819 680 703 595 519 414 440 530 627 735 897 942 1048 989 953 878 856 774 639 415 267 230 177
0 0 0 0 0 0 0 0 0 0 0 0 0 0 0 0 10 217 434 738 896 890 834 868 745 591 635 657 680 788 730 773 969 927 979 946 1106 995 950 806 741 488 371 302
0 0 0 0 0 0 0 0 0 0 0 0 0 0 6 0 1 125 704 793 867 743 518 467 338 254 438 703 1227 1272 891 849 957 967 1072 1098 1180 1265 1253 897 870 826 728 643
0 0 0 0 0 0 0 0 0 0 0 0 0 0 0 0 0 82 197 321 575 732 672 485 149 167 477 279 694 2053 1515 1120 340 9 43 469 1127 1205 1333 731 871 977 856 760
0 0 0 0 0 0 0 0 0 0 0 0 2 0 13 16 36 50 331 480 587 580 469 361 296 167 221 275 225 2275 1516 503 4 0 0 0 407 982 745 775 1302 1160 1013 797
0 0 0 0 0 0 0 0 0 0 0 0 0 0 1 48 41 99 655 683 694 718 722 621 1085 1419 1144 937 337 752 419 43 0 1 0 0 88 1193 1569 1459 1521 1532 1273 1007
0 0 0 0 0 0 0 0 0 0 0 0 8 7 25 43 61 333 475 942 948 268 160 994 1353 1310 935 723 684 503 166 236 108 0 0 0 11 1696 1963 1692 1576 1480 1457 979
0 0 0 0 0 0 0 0 0 0 0 5 3 9 0 19 133 67 375 934 665 169 6 518 1145 1176 1311 1335 1269 1446 1109 746 679 101 12 18 429 991 1956 1788 1687 1492 1301 913
0 0 0 0 0 0 0 0 0 0 0 0 0 0 0 2 237 112 384 483 79 31 277 790 1007 965 794 811 1137 1334 1380 1465 1263 887 786 942 1477 1742 1704 1670 1664 1456 1192 895
0 0 0 0 0 0 0 0 0 0 0 0 1 0 0 0 16 83 126 236 186 310 336 791 237 123 359 348 417 642 689 817 954 1053 1295 1281 1201 1142 1392 1461 1625 1368 1205 946
0 0 0 0 0 0 0 0 0 0 0 0 0 7 4 271 627 592 970 540 594 545 822 534 596 408 3 0 134 174 156 232 221 517 733 860 792 760 927 1137 1059 884 828 821
0 0 0 0 14 4 0 0 0 11 12 23 3 6 4 57 150 344 864 960 1058 1086 839 517 243 39 0 11 0 214 99 0 36 189 271 363 383 554 730 772 790 834 677 664
0 0 0 0 0 0 0 0 4 11 12 23 4 0 0 0 0 16 289 662 513 434 324 252 83 222 59 69 93 126 238 111 56 66 106 93 59 0 0 0 80 89 180 379
0 0 0 0 0 0 0 0 0 0 0 17 42 22 0 0 0 0 0 0 0 0 0 0 0 0 0 0 2 5 12 30 91 113 142 114 47 23 6 0 0 0 0 3
0 0 0 0 0 0 0 0 0 0 0 0 0 0 0 0 0 0 0 0 0 0 0 0 0 0 0 0 0 0 0 3 37 84 131 126 71 39 14 11 9 9 16 3
0 0 0 0 0 0 0 0 0 0 0 0 0 0 0 0 0 0 0 0 0 0 0 0 0 0 0 0 0 0 0 0 0 4 18 44 134 167 56 57 57 35 59 70
0 0 0 0 0 0 0 0 0 0 0 0 0 0 0 0 0 0 0 0 0 0 0 0 0 0 0 0 0 0 0 0 0 0 1 19 47 102 115 208 267 216 184 166
0 0 0 0 0 0 0 0 0 0 0 0 0 0 0 0 0 0 0 0 0 0 0 0 0 0 0 0 0 0 0 0 0 1 15 42 58 67 56 35 33 97 227 241
0 0 0 0 0 0 0 0 0 0 0 0 0 0 0 0 0 0 0 0 0 0 0 0 0 0 0 0 0 0 0 0 0 0 0 6 18 28 27 26 50 35 27 23
0 0 0 0 0 0 0 0 0 0 0 0 0 0 0 0 0 0 0 0 0 0 0 0 0 0 0 0 0 0 0 0 1 0 0 0 0 1 12 9 0 1 8 28
0 0 0 0 0 0 0 0 0 0 0 0 0 0 0 0 0 0 0 0 0 0 0 0 3 2 4 12 1 4 4 3 3 3 4 8 3 1 1 7 0 0 0 0
0 0 0 0 0 0 0 0 0 0 0 0 0 0 0 0 0 0 0 0 1 2 1 1 3 2 1 1 0 0 1 1 2 0 1 1 3 10 2 2 1 1 0 3
0 0 0 0 0 0 0 0 0 0 0 0 0 0 0 0 0 0 1 2 0 1 1 1 0 0 0 1 0 0 0 2 3 4 2 3 3 4 4 7 3 1 10 2
CIN
-0 -0 -0 -0 -0 -0 -0 -0 -0 -0 -0 -0 -0 -0 -0 -164 -197 -175 -181 -194 -192 -188 -167 -272 -289 -284 -234 -253 -227 -201 -201 -201 -213 -203 -165 -147 -133 -150 -166 -195 -192 -168 -168 -107
-0 -0 -0 -0 -0 -0 -0 -0 -0 -0 -0 -0 -0 -0 -0 -173 -161 -188 -160 -172 -197 -163 -196 -211 -255 -263 -272 -275 -264 -225 -205 -256 -221 -211 -190 -161 -170 -158 -171 -163 -146 -158 -154 -125
-0 -0 -0 -0 -0 -0 -0 -0 -0 -0 -0 -0 -0 -0 -64 -32 -238 -207 -179 -169 -178 -177 -177 -188 -280 -284 -271 -300 -276 -256 -231 -247 -233 -221 -184 -137 -96 -130 -161 -186 -167 -161 -158 -142
-0 -0 -0 -0 -0 -0 -0 -0 -0 -0 -0 -0 -0 -0 -127 -0 -0 -240 -180 -157 -172 -155 -180 -195 -218 -236 -252 -237 -307 -271 -272 -250 -240 -227 -171 -119 -109 -93 -110 -116 -158 -197 -202 -186
-0 -0 -0 -0 -0 -0 -0 -0 -0 -0 -0 -0 -0 -0 -0 -0 -55 -115 -172 -190 -180 -156 -150 -163 -188 -212 -261 -243 -263 -273 -290 -290 -251 -229 -206 -164 -121 -119 -105 -97 -109 -153 -197 -201
-0 -0 -0 -0 -0 -0 -0 -0 -0 -0 -0 -0 -0 -0 -125 -30 -65 -137 -206 -204 -234 -237 -289 -236 -300 -334 -275 -305 -237 -241 -268 -261 -270 -213 -193 -176 -145 -113 -88 -102 -96 -100 -120 -135
-0 -0 -0 -0 -0 -0 -0 -0 -0 -0 -0 -0 -34 -0 -0 -0 -0 -270 -302 -285 -254 -268 -245 -206 -267 -340 -277 -293 -280 -163 -239 -232 -311 -127 -115 -112 -154 -152 -98 -127 -104 -90 -93 -107
-0 -0 -0 -0 -0 -0 -0 -0 -0 -0 -0 -0 -43 -0 -138 -278 -291 -384 -348 -380 -308 -254 -300 -275 -281 -313 -275 -288 -359 -161 -232 -341 -97 -0 -0 -0 -47 -154 -164 -144 -79 -87 -90 -90
-0 -0 -0 -0 -0 -0 -0 -0 -0 -0 -0 -1 -0 -0 -25 -326 -287 -191 -170 -169 -193 -168 -175 -230 -245 -225 -216 -261 -404 -303 -363 -202 -0 -11 -0 -0 -318 -133 -81 -62 -54 -56 -83 -89
-0 -0 -0 -0 -0 -0 -0 -0 -0 -0 -0 -2 -66 -88 -60 -215 -202 -232 -124 -130 -195 -139 -185 -210 -230 -249 -252 -230 -379 -342 -384 -277 -289 -0 -0 -0 -267 -54 -53 -25 -31 -28 -37 -69
-0 -0 -0 -0 -0 -0 -0 -0 -0 -0 -0 -30 -6 -25 -0 -204 -184 -184 -128 -142 -141 -178 -287 -248 -196 -192 -217 -179 -159 -133 -244 -227 -179 -336 -180 -129 -213 -110 -53 -19 -17 -25 -28 -57
-0 -0 -0 -0 -0 -0 -0 -0 -0 -0 -0 -5 -0 -2 -0 -73 -245 -233 -163 -184 -235 -364 -328 -219 -192 -205 -245 -223 -158 -121 -116 -87 -110 -137 -155 -148 -114 -79 -47 -32 -20 -27 -33 -62
-0 -0 -0 -0 -0 -0 -0 -0 -0 -0 -0 -0 -32 -0 -0 -0 -46 -331 -291 -307 -307 -269 -229 -190 -291 -251 -214 -202 -162 -116 -125 -94 -90 -90 -64 -68 -75 -75 -67 -58 -47 -32 -22 -47
-0 -0 -0 -0 -7 -0 -0 -0 -0 -0 -0 -0 -0 -157 -114 -164 -147 -208 -171 -217 -196 -182 -165 -174 -138 -143 -118 -0 -145 -115 -96 -91 -106 -110 -104 -90 -96 -102 -86 -62 -60 -59 -61 -63
-0 -0 -0 -9 -140 -161 -4 -0 -0 -149 -186 -103 -156 -161 -68 -224 -182 -158 -124 -130 -100 -70 -71 -84 -101 -112 -0 -109 -0 -67 -82 -0 -111 -101 -101 -102 -123 -110 -75 -57 -51 -48 -56 -60
-0 -0 -0 -0 -0 -0 -0 -0 -238 -220 -245 -220 -257 -3 -0 -0 -0 -273 -198 -141 -153 -126 -109 -117 -137 -87 -54 -59 -95 -118 -72 -117 -84 -103 -48 -59 -77 -0 -0 -0 -77 -74 -60 -57
-0 -0 -0 -0 -0 -0 -0 -0 -0 -0 -0 -259 -155 -230 -0 -0 -0 -0 -0 -0 -0 -0 -0 -0 -0 -0 -0 -0 -31 -41 -43 -59 -56 -57 -75 -79 -63 -57 -44 -0 -0 -0 -0 -72
-0 -0 -0 -0 -0 -0 -0 -0 -0 -0 -0 -0 -0 -0 -0 -0 -0 -0 -0 -0 -0 -0 -0 -0 -0 -0 -0 -0 -0 -0 -0 -42 -55 -67 -61 -72 -40 -54 -48 -57 -62 -55 -71 -20
-0 -0 -0 -0 -0 -0 -0 -0 -0 -0 -0 -0 -0 -0 -0 -0 -0 -0 -0 -0 -0 -0 -0 -0 -0 -0 -0 -0 -0 -0 -0 -0 -0 -112 -86 -93 -138 -108 -93 -87 -72 -39 -74 -75
-0 -0 -0 -0 -0 -0 -0 -0 -0 -0 -0 -0 -0 -0 -0 -0 -0 -0 -0 -0 -0 -0 -0 -0 -0 -0 -0 -0 -0 -0 -0 -0 -0 -0 -37 -115 -90 -117 -102 -65 -48 -43 -44 -44
-0 -0 -0 -0 -0 -0 -0 -0 -0 -0 -0 -0 -0 -0 -0 -0 -0 -0 -0 -0 -0 -0 -0 -0 -0 -0 -0 -0 -0 -0 -0 -0 -0 -49 -125 -119 -125 -105 -104 -90 -89 -73 -54 -45
-0 -0 -0 -0 -0 -0 -0 -0 -0 -0 -0 -0 -0 -0 -0 -0 -0 -0 -0 -0 -0 -0 -0 -0 -0 -0 -0 -0 -0 -0 -0 -0 -0 -0 -0 -80 -127 -155 -137 -97 -91 -83 -65 -55
-0 -0 -0 -0 -0 -0 -0 -0 -0 -0 -0 -0 -0 -0 -0 -0 -0 -0 -0 -0 -0 -0 -0 -0 -3 -2 -1 -1 -0 -0 -0 -1 -13 -0 -0 -0 -6 -23 -113 -120 -13 -11 -55 -23
-0 -0 -0 -0 -0 -0 -0 -0 -0 -0 -0 -0 -0 -0 -0 -0 -0 -0 -0 -0 -0 -0 -0 -4 -8 -6 -4 -0 -2 -0 -0 -0 -0 -0 -0 -0 -3 -0 -0 -60 -0 -0 -0 -0
-0 -0 -0 -0 -0 -0 -0 -0 -0 -0 -0 -0 -0 -0 -0 -0 -0 -0 -0 -0 -0 -2 -1 -0 -0 -0 -0 -0 -0 -0 -0 -0 -0 -0 -0 -0 -0 -0 -2 -1 -0 -0 -0 -5
-0 -0 -0 -0 -0 -0 -0 -0 -0 -0 -0 -0 -0 -0 -0 -0 -0 -0 -0 -1 -1 -1 -0 -0 -0 -0 -0 -0 -0 -0 -0 -0 -0 -0 -0 -0 -0 -0 -0 -0 -0 -1 -22 -29
Wind_Speed
16 16 15 17 17 18 20 10 10 8 13 15 16 17 16 18 20 19 18 18 17 18 17 13 16 17 17 17 18 19 19 20 19 17 18 19 16 15 16 15 14 11 11 13
17 22 21 19 21 23 17 10 15 13 10 12 18 13 15 13 16 19 20 20 19 16 13 13 14 14 17 16 17 17 17 17 18 17 15 15 13 13 13 13 14 14 14 16
15 20 21 21 24 22 13 12 13 14 14 18 19 19 19 16 6 17 22 23 19 16 13 13 11 13 15 16 15 15 15 13 14 14 13 14 14 12 12 12 13 15 15 16
16 20 22 24 23 9 12 14 15 17 17 13 19 14 16 18 17 14 15 24 21 16 14 19 11 15 15 14 14 13 11 11 11 10 11 12 12 12 13 11 11 13 14 15
13 17 21 25 23 10 14 16 17 19 15 14 16 15 17 13 15 13 13 16 19 17 15 19 16 12 5 4 6 10 10 8 7 8 10 11 10 11 12 11 12 12 12 13
29 28 26 20 20 15 16 16 19 18 17 14 19 15 19 19 13 10 12 11 18 17 17 9 5 7 8 9 3 6 7 1 13 8 7 11 10 11 11 11 12 13 12 8
23 26 18 14 14 14 16 16 16 15 17 15 21 17 15 20 13 7 11 17 1 19 17 17 10 11 8 9 6 6 6 12 18 30 37 33 14 10 11 10 11 10 10 8
16 17 17 16 14 15 17 11 10 13 20 21 20 20 17 14 14 12 12 10 11 15 20 20 14 7 4 5 10 15 8 7 14 42 43 35 32 15 11 9 9 7 6 5
13 16 20 21 15 11 14 10 12 15 18 16 19 20 15 12 12 10 10 10 12 14 19 21 23 18 9 9 13 9 7 10 12 15 9 25 27 13 9 10 5 7 3 3
15 19 16 16 13 15 15 10 16 18 16 17 19 23 19 8 10 8 10 7 8 15 27 24 26 15 18 15 18 11 8 8 6 1 3 10 7 4 5 5 6 6 5 9
15 17 20 17 17 16 15 15 14 13 16 18 19 23 18 9 10 7 7 8 7 7 13 13 16 19 22 21 22 18 12 8 7 0 2 7 8 7 9 10 13 11 14 13
16 14 15 10 15 13 13 15 15 15 17 17 18 20 20 9 8 9 7 6 8 7 5 9 9 11 22 24 25 24 20 13 7 4 3 5 9 18 20 18 18 20 17 14
6 14 15 15 14 15 17 18 16 14 15 19 20 22 18 12 13 5 9 8 8 6 9 8 10 13 22 24 23 21 20 16 13 12 11 15 19 23 23 20 20 20 19 18
5 12 13 14 15 14 16 18 17 16 18 18 20 21 16 13 15 12 10 9 9 8 9 10 13 17 24 22 20 18 14 12 14 16 16 18 19 21 21 20 20 21 21 22
12 12 11 13 14 15 17 17 14 17 15 21 19 17 15 13 13 12 11 11 11 10 10 13 17 21 25 23 21 20 16 14 14 15 18 19 21 21 22 22 22 22 22 23
14 12 12 15 17 16 19 23 16 19 16 14 11 14 14 15 15 16 16 15 17 18 19 20 25 28 29 27 26 24 21 20 19 18 19 21 22 22 23 23 23 23 23 23
13 9 12 12 16 16 22 26 18 19 20 9 13 14 10 12 15 17 17 18 19 21 25 29 30 29 29 29 29 30 27 25 20 20 22 20 21 23 24 25 26 27 27 26
8 11 14 12 17 23 12 16 16 15 17 13 11 9 10 11 15 19 21 22 24 26 29 30 31 32 31 31 33 36 35 33 29 26 26 26 25 24 25 25 25 26 25 24
11 11 15 17 20 15 10 13 13 15 15 15 12 12 15 19 21 24 25 27 28 30 32 33 34 35 35 37 36 35 35 35 36 37 38 38 37 34 31 28 26 25 24 24
14 14 14 15 16 15 12 12 12 13 14 12 13 16 18 21 26 26 29 29 32 33 33 36 36 36 37 38 38 38 37 36 35 35 36 36 35 36 38 35 33 30 28 29
15 16 14 15 17 16 12 14 9 17 18 10 13 15 17 20 20 22 25 28 28 32 35 36 37 38 37 37 38 37 37 36 35 33 36 36 36 36 37 36 35 35 35 35
14 14 15 16 17 18 15 14 14 13 12 11 13 15 18 20 22 24 27 32 36 37 38 37 38 38 36 34 36 36 33 29 27 28 29 29 39 42 41 42 43 42 40 40
17 15 14 16 17 18 16 13 12 11 12 13 16 18 19 22 26 29 32 34 36 36 37 37 36 37 36 34 30 33 34 30 29 25 21 20 25 34 37 38 40 40 39 39
15 14 17 16 15 14 14 14 13 13 15 16 18 20 22 24 26 29 31 33 34 35 36 35 38 38 38 35 39 36 38 37 37 32 27 22 19 23 27 30 33 35 36 36
16 13 13 19 13 14 16 11 12 15 15 17 20 21 23 25 28 29 30 31 31 32 32 35 36 37 36 38 38 37 37 35 33 31 30 30 28 24 24 26 29 30 31 31
13 14 15 18 8 13 10 12 12 14 16 17 19 22 24 26 28 28 29 29 29 30 31 33 34 36 38 40 37 41 39 37 34 32 30 29 27 28 27 27 28 22 26 35
Wind_Direction
281 277 273 290 312 325 290 153 119 111 120 133 175 253 151 149 162 162 159 161 161 166 162 145 163 155 146 151 156 161 162 169 161 159 170 177 175 176 183 182 180 163 162 166
268 250 262 295 291 308 327 137 355 15 31 124 230 348 274 146 168 176 173 173 172 164 146 147 157 155 159 149 155 157 163 160 165 163 166 165 158 168 162 167 176 174 168 171
258 249 268 285 272 300 8 0 357 14 344 293 300 308 314 341 101 176 188 190 177 170 163 165 143 159 167 168 153 155 157 151 157 154 156 165 171 169 153 157 164 173 172 172
259 263 266 273 284 10 337 335 342 350 348 3 299 4 335 310 307 330 172 186 181 170 165 177 151 166 169 172 167 162 149 151 152 139 146 164 180 184 186 171 161 159 169 176
259 271 281 277 284 344 321 322 330 339 354 360 324 342 332 351 344 17 151 160 176 175 168 177 176 165 71 79 169 177 172 160 150 158 164 176 183 194 192 187 178 166 158 166
248 257 270 290 307 296 299 319 315 331 336 351 303 328 324 320 341 43 30 106 174 273 289 128 38 25 39 25 140 172 187 165 326 314 186 194 195 194 192 190 187 184 171 143
262 245 289 309 313 320 311 314 315 333 343 355 306 323 343 329 351 18 11 316 199 174 290 181 190 170 38 46 60 358 1 339 336 314 286 254 212 203 202 197 193 182 176 158
266 275 285 298 308 325 317 311 317 327 330 327 309 313 327 356 4 348 355 359 330 289 280 240 209 149 118 42 11 334 356 1 344 359 271 245 241 211 215 207 203 195 187 172
263 277 293 280 296 328 332 321 320 324 326 332 314 320 348 14 15 24 7 329 317 312 283 283 283 262 28 29 21 15 15 346 340 348 165 215 233 206 212 219 240 237 241 348
270 272 300 321 323 315 318 338 315 317 326 327 322 307 323 10 26 52 1 53 31 336 255 257 300 20 23 38 27 30 5 351 345 159 195 201 225 237 251 266 289 264 311 337
272 286 284 318 320 320 323 324 330 337 330 321 318 315 331 359 9 26 38 96 97 78 162 202 359 8 15 20 15 10 10 13 14 246 302 221 330 301 308 307 317 320 332 331
271 297 301 341 325 340 357 341 340 329 325 334 329 321 338 6 15 18 30 35 19 43 23 352 4 13 6 7 3 2 3 3 8 357 318 300 322 327 321 323 312 316 326 333
289 280 297 304 316 321 331 338 353 355 341 330 320 321 342 3 350 5 356 355 359 7 353 356 355 357 352 354 359 3 3 4 8 3 356 343 337 332 329 329 321 320 323 324
292 306 316 313 316 330 329 335 343 341 325 327 322 321 337 350 357 5 14 23 26 10 352 349 347 345 345 348 353 358 2 6 1 354 352 348 344 341 340 337 331 328 325 319
301 315 331 339 340 336 333 332 343 339 339 323 320 325 335 350 11 13 18 14 16 14 4 353 348 342 340 342 344 346 346 345 344 345 344 340 339 338 338 337 334 331 326 321
301 324 333 327 326 336 327 327 339 333 336 340 349 337 352 344 1 5 349 353 348 345 342 340 336 337 337 338 336 335 332 332 332 334 334 330 330 328 326 325 324 324 322 320
307 338 336 347 340 343 324 324 334 329 323 333 323 325 346 1 12 9 1 360 358 355 347 341 341 343 344 343 343 340 337 333 326 318 320 323 323 319 319 319 316 313 312 310
334 330 332 353 342 327 359 2 2 1 354 355 1 355 343 356 354 348 346 345 343 341 339 341 342 341 341 341 338 334 331 327 325 318 315 313 312 312 310 312 310 309 306 304
330 336 334 330 334 353 2 350 348 349 344 353 2 347 327 317 322 328 337 338 336 335 336 336 336 335 334 332 332 331 329 328 324 318 313 309 308 305 305 303 304 306 303 303
334 340 338 335 341 340 357 358 356 358 332 342 340 330 327 328 319 323 327 330 332 336 337 335 335 334 332 331 330 326 325 324 322 321 318 315 312 306 302 301 300 300 299 296
321 329 336 337 339 344 360 355 17 326 327 345 341 341 339 334 335 336 336 337 339 338 336 336 335 336 336 338 335 333 330 326 324 323 319 314 307 305 300 299 300 298 297 293
315 322 330 336 335 332 345 342 331 347 358 355 351 346 340 339 337 337 336 332 332 334 336 337 338 339 342 345 341 339 341 342 340 332 324 316 303 298 298 295 294 294 293 291
308 321 327 330 334 338 343 353 14 12 3 352 345 341 342 336 333 331 331 334 336 338 337 337 339 339 342 345 350 344 343 344 344 344 340 331 322 310 304 299 297 295 293 291
315 328 326 332 334 346 350 355 1 5 353 351 350 345 341 338 336 336 337 338 339 340 340 342 338 338 337 343 339 343 341 341 341 342 340 336 332 325 317 312 306 299 295 291
316 328 331 323 330 337 336 354 357 353 354 351 348 345 342 340 339 340 341 343 344 345 348 347 346 342 342 341 343 345 345 345 343 340 336 331 328 324 321 318 314 308 302 296
322 323 316 317 326 337 342 348 356 355 352 353 350 345 346 346 345 347 347 348 350 351 353 353 355 348 340 343 349 344 347 345 343 340 338 334 327 322 321 317 315 316 308 299